weather.gov     
National Weather Service

Regional Weather Roundup
NWS Homepage
This page is being discontinued on March 12, 2014.
The same data is available at this site. Please update your bookmarks.
Thank you, and we apologize for the inconvenience.
Please send an email to SR-SRH.Webmaster@noaa.gov with any concerns.


Current Version
Previous Version:    01  02  03  04  05  06  07  08  09  10  11  12  13  14  15  16  17  18  19  20  21  22  23  24  25  26  27  28  29  30  
   31  32  33  34  35  36  37  38  39  40  41  42  43  44  45  46  47  48  49  50  51  52  53  54  55  56  57  58  59  60  
[Printable]
647
ASUS44 KSJT 192002
RWRSJT
WEST CENTRAL TEXAS REGIONAL WEATHER ROUNDUP
NATIONAL WEATHER SERVICE SAN ANGELO TX
300 PM CDT FRI SEP 19 2014

NOTE: "FAIR" INDICATES FEW OR NO CLOUDS BELOW 12,000 FEET WITH NO
SIGNIFICANT WEATHER AND/OR OBSTRUCTIONS TO VISIBILITY.

TXZ049-054-064>066-071>073-076>078-098-099-113-114-127-128-139-140-
154-155-168>170-192100
...LOCATIONS ACROSS WEST CENTRAL TEXAS...

CITY           SKY/WX    TMP DP  RH WIND       PRES   REMARKS
SAN ANGELO     CLOUDY    77  71  82 NE7       29.95F
ABILENE        CLOUDY    79  69  71 E8        29.95F
DYESS AFB      CLOUDY    79  63  57 SE7       29.94F
JUNCTION       CLOUDY    77  76  96 E12       29.93S
SWEETWATER     PTSUNNY   76  69  81 E8        30.00F
BROWNWOOD      NOT AVBL
COLEMAN        CLOUDY    78  71  77 SE5       29.95F
SONORA         PTSUNNY   86  68  54 CALM      29.95F
OZONA          FAIR      82  66  57 E6        29.95F
BRADY          NOT AVBL
$$

TEXAS PANHANDLE/OKLAHOMA PANHANDLE

CITY           SKY/WX    TMP DP  RH WIND       PRES   REMARKS
AMARILLO       CLOUDY    74  63  68 SE15      30.03F
BORGER         CLOUDY    81  61  50 S14G22    29.99F
CANADIAN       MOSUNNY   84  64  51 S9G18     29.96F
DALHART        CLOUDY    78  61  55 S15G26    30.02F
DUMAS          MOCLDY    77  64  63 S13G20    30.02F
GUYMON         NOT AVBL
HEREFORD       LGT RAIN  69  67  95 SE5       30.04F
PAMPA          PTCLDY    81  60  49 S16G22    30.01F
PERRYTON       MOSUNNY   84  60  43 S18       29.98F
$$

SOUTHERN PANHANDLE/SOUTH PLAINS/ROLLING PLAINS

CITY           SKY/WX    TMP DP  RH WIND       PRES   REMARKS
LUBBOCK        CLOUDY    71  66  84 SE13      30.01F
SNYDER         CLOUDY    76  69  79 E8        29.97F
CHILDRESS      MOSUNNY   83  66  56 S10G20    29.97F
SEMINOLE       CLOUDY    72  67  84 SE12      29.99F
$$

PERMIAN BASIN

CITY           SKY/WX    TMP DP  RH WIND       PRES   REMARKS
MIDLAND        CLOUDY    73  70  90 E13       29.95F
ODESSA         CLOUDY    72  67  84 E9        29.96F
WINK           CLOUDY    77  70  79 SE14      29.92
$$

FAR WEST/SOUTHWEST MOUNTAINS/TRANS PECOS

CITY           SKY/WX    TMP DP  RH WIND       PRES   REMARKS
ALPINE         MOCLDY    82  63  52 SW5       30.05F
DRYDEN           N/A     90  68  48 E5        29.87F
EL PASO        PTSUNNY   79  61  53 W8        29.97F
FORT STOCKTON  PTSUNNY   79  70  74 E8        29.94F
GUADALUPE PASS PTSUNNY   75  66  73 W20G28    30.05F
MARFA          MOSUNNY   81  64  57 S6        30.05F
PECOS          NOT AVBL
$$

DALLAS/FORT WORTH METROPLEX

CITY           SKY/WX    TMP DP  RH WIND       PRES   REMARKS
DFW AIRPORT    PTSUNNY   85  68  56 E8        29.92F
FTW MEACHAM    PTSUNNY   84  69  60 E6        29.93F
DAL-EXECUTIVE  PTSUNNY   89  68  49 SE10      29.92F
GRAND PRAIRIE  MOSUNNY   84  68  58 MISG      29.93F
ADDISON        NOT AVBL
MESQUITE       MOCLDY    88  66  48 SE10      29.93F
LANCASTER      MOCLDY    87  67  51 E13       29.93F
$$

NORTH CENTRAL TEXAS

CITY           SKY/WX    TMP DP  RH WIND       PRES   REMARKS
SHRMAN/DENISON PTCLDY    86  67  53 E9        29.96F
GAINESVILLE    PTSUNNY   84  67  56 SE12      29.96F
BRIDGEPORT     CLOUDY    80  66  61 E7        29.97F
DENTON         PTSUNNY   84  68  58 SE6       29.93F
WAXAHACHIE     CLOUDY    85  65  52 E7        29.93F
GRANBURY       NOT AVBL
$$

WESTERN NORTH TEXAS

CITY           SKY/WX    TMP DP  RH WIND       PRES   REMARKS
WICHITA FALLS  MOSUNNY   85  67  54 SE13      29.93F
VERNON         PTCLDY    87  62  43 E10       29.94F
BRECKENRIDGE   NOT AVBL
COMANCHE       CLOUDY    80  67  65 E8        29.96F
$$

CENTRAL AND SOUTH CENTRAL TEXAS

CITY           SKY/WX    TMP DP  RH WIND       PRES   REMARKS
AUSTIN/BERGSTM PTSUNNY   84  75  74 VRB5      29.88F
WACO           PTSUNNY   85  69  58 CALM      29.91F
HILLSBORO      NOT AVBL
TEMPLE         MOSUNNY   86  68  54 SE3       29.91F
KILLEEN-GRAY   PTSUNNY   82  72  69 E3        29.94F
FORT HOOD      MOSUNNY   86  71  60 VRB3      29.92F
GEORGETOWN     PTSUNNY   86  72  62 NE7       29.91F
LAGO VISTA     CLOUDY    81  73  75 NE6       29.93F
SAN MARCOS     SUNNY     82  72  69 N10       29.90F
NEW BRAUNFELS  CLOUDY    83  73  72 NE10      29.88S
RANDOLPH AFB   NOT AVBL
SAN ANTONIO    CLOUDY    86  74  67 N12       29.88F
STINSON        PTSUNNY   90  72  55 NE10      29.84F
PLEASANTON     NOT AVBL
LA GRANGE      MOSUNNY   88  75  66 E5        29.86F
GIDDINGS       NOT AVBL
$$

EAST TEXAS

CITY           SKY/WX    TMP DP  RH WIND       PRES   REMARKS
PARIS          PTSUNNY   81  68  65 E10       29.98F
CLARKSVILLE    NOT AVBL
TYLER          MOSUNNY   87  69  54 NE7       29.93F
LONGVIEW       MOSUNNY   85  70  60 E8        29.93F
PALESTINE      MOCLDY    84  72  67 E9        29.94F
NACOGDOCHES    MOSUNNY   88  70  55 E10       29.92F
$$

TEXAS HILL COUNTRY AND EDWARDS PLATEAU

CITY           SKY/WX    TMP DP  RH WIND       PRES   REMARKS
LLANO          NOT AVBL
HORSESHOE BAY  DRIZZLE   74  74 100 CALM      29.93F
KERRVILLE      PTSUNNY   82  70  67 E8        29.93S
FREDERICKSBRG  CLOUDY    74  71  89 E5        29.94F
ROCKSPRINGS    NOT AVBL
HONDO          MOSUNNY   92  69  47 E12       29.86F
UVALDE         PTCLDY    88  73  61 E10       29.84F
DEL RIO        MOSUNNY   90  71  53 E7        29.81F
$$

SOUTHEAST TEXAS

CITY           SKY/WX    TMP DP  RH WIND       PRES   REMARKS
COLLEGE STN    CLOUDY    83  73  72 E7        29.90F
CALDWELL       NOT AVBL
CROCKETT       NOT AVBL
BRENHAM        MOSUNNY   85  75  72 E6        29.90F
HUNTSVILLE     PTSUNNY   85  73  67 E6        29.91F
CONROE         CLOUDY    83  73  72 VRB6      29.90F
HOUSTON BUSH   PTSUNNY   83  74  74 E9        29.89F
HOUSTON HOBBY  CLOUDY    80  75  84 SE3       29.89F
PERLAND        CLOUDY    80  74  81 E7        29.91F
WHARTON        CLOUDY    82  75  78 E7        29.89F
$$

THE UPPER TEXAS COAST

CITY           SKY/WX    TMP DP  RH WIND       PRES   REMARKS
ORANGE         LGT RAIN  77  77 100 CALM      29.92F
PORT ARTHUR    PTSUNNY   85  75  72 E6        29.90F
GALVESTON      CLOUDY    81  75  82 E7        29.90F
ANGLETON       LGT RAIN  80  75  84 E8        29.89F
BAY CITY       CLOUDY    85  78  79 E5        29.88F
$$

TEXAS COASTAL BEND, RIO GRANDE PLAINS DEEP SOUTH TEXAS

CITY           SKY/WX    TMP DP  RH WIND       PRES   REMARKS
VICTORIA       PTSUNNY   85  76  74 SE9       29.87F
BEEVILLE       FAIR      94  72  48 E20G26    29.82F
ROCKPORT       CLOUDY    82  74  76 E15       29.85F
PORT ARANSAS   CLOUDY    82  77  84 NE15G21   29.86R
PORT LAVACA    MOCLDY    80  75  86 E8        29.86F
CORPUS CHRISTI TSTM      82  77  84 S12       29.83F
KINGSVILLE NAS PTSUNNY   94  77  57 CALM      29.79F
COTULLA        PTSUNNY   96  69  41 E10       29.80F
LAREDO         PTSUNNY   93  72  50 E7        29.81F
BROWNSVILLE    MOSUNNY   91  77  63 SE9       29.79F
PORT ISABEL    PTSUNNY   88  78  72 E16       29.79F HAZE
HEBBRONVILLE   NOT AVBL
MCALLEN        MOSUNNY   92  76  59 E8        29.78F
WESLACO        MOSUNNY   91  73  54 SE5       29.78F
FALFURRIAS     PTCLDY   N/A N/A N/A E6        29.78F
EDINBURG       PTCLDY    94  73  49 SE6       29.78F
$$




U.S. Dept. of Commerce
NOAA National Weather Service
1325 East West Highway
Silver Spring, MD 20910
E-mail: w-nws.webmaster@noaa.gov
Page last modified: May 16, 2007
NATIONAL WEATHER SERVICE: for Safety, for Work, for Fun - FOR LIFE